SES-1

Last updated on Sat Apr 04 2026 00:02:50 GMT+0000 (Coordinated Universal Time)

1 36516U 10016A 26093.58576579 -.00000116 00000+0 00000+0 0 9998 2 36516 0.0314 282.6128 0002767 94.3365 284.8297 1.00269652 58286
UTC large
Height (km)
Speed (km/s)
/
Latitude / Longitude
Inclination (degrees)
Orbital Period (minutes)
Azimuth
Elevation
Range (km)
Doppler Factor

Next 0 passes for location: London (51.5072 / 0.1276)

Sorry there are no passes over London.